This demonstration page uses our WeatherBlox Daily Observations layout. Learn more.

Hourly Observations for November 19, 2020

Temp ( °F °C ) Dew Point ( °F °C ) Humidity (%) Winds ( mph kmh ) Pressure ( in mb ) Visibility ( mi km ) Precip ( " mm )
12:15 am 00:15 Clear 27 -3 27 -3 100 100 W 3 6 30.65 1038 10 16.0934 0 0
12:35 am 00:35 Clear 27 -3 27 -3 100 100 WSW 7 11 30.65 1038 10 16.0934 0 0
12:55 am 00:55 Clear 27 -3 27 -3 100 100 WSW 7 11 30.65 1038 10 16.0934 0 0
1:15 am 01:15 Clear 28 -2 25 -4 86 86 W 6 9 30.65 1038 10 16.0934 0 0
1:35 am 01:35 Clear 28 -2 27 -3 93 93 WSW 3 6 30.64 1037 10 16.0934 0 0
1:55 am 01:55 Clear 28 -2 25 -4 86 86 SW 3 6 30.64 1037 10 16.0934 0 0
2:15 am 02:15 Clear 28 -2 25 -4 86 86 WSW 5 7 30.64 1037 10 16.0934 0 0
2:35 am 02:35 Clear 28 -2 27 -3 93 93 SSW 3 6 30.64 1037 10 16.0934 0 0
2:55 am 02:55 Clear 30 -1 25 -4 80 80 SSW 3 6 30.63 1037 10 16.0934 0 0
3:15 am 03:15 Clear 27 -3 23 -5 86 86 SW 5 7 30.64 1037 10 16.0934 0 0
3:35 am 03:35 Clear 27 -3 27 -3 100 100 Calm 30.64 1037 10 16.0934 0 0
3:55 am 03:55 Clear 28 -2 27 -3 93 93 SSW 5 7 30.64 1037 10 16.0934 0 0
4:15 am 04:15 Clear 28 -2 25 -4 86 86 SSW 6 9 30.64 1037 10 16.0934 0 0
4:35 am 04:35 Clear 28 -2 27 -3 93 93 SSW 5 7 30.64 1037 10 16.0934 0 0
4:55 am 04:55 Clear 28 -2 25 -4 86 86 S 3 6 30.64 1037 10 16.0934 0 0
5:15 am 05:15 Clear 27 -3 25 -4 93 93 Calm 30.64 1037 10 16.0934 0 0
5:35 am 05:35 Clear 28 -2 27 -3 93 93 Calm 30.64 1037 10 16.0934 0 0
5:55 am 05:55 Clear 28 -2 27 -3 93 93 Calm 30.64 1037 10 16.0934 0 0
6:15 am 06:15 Clear 28 -2 27 -3 93 93 SSE 3 6 30.63 1037 10 16.0934 0 0
6:35 am 06:35 Clear 28 -2 25 -4 86 86 SSW 3 6 30.63 1037 10 16.0934 0 0
6:55 am 06:55 Clear 28 -2 27 -3 93 93 SSW 3 6 30.64 1037 10 16.0934 0 0
7:15 am 07:15 Sunny 28 -2 27 -3 93 93 S 5 7 30.64 1037 10 16.0934 0 0
7:35 am 07:35 Sunny 30 -1 27 -3 86 86 S 5 7 30.63 1037 10 16.0934 0 0
7:55 am 07:55 Sunny 30 -1 27 -3 86 86 S 3 6 30.63 1037 10 16.0934 0 0
8:15 am 08:15 Sunny 32 0 28 -2 87 87 S 7 11 30.63 1037 10 16.0934 0 0
8:35 am 08:35 Sunny 34 1 28 -2 81 81 S 9 15 30.63 1037 10 16.0934 0 0
8:55 am 08:55 Sunny 36 2 28 -2 75 75 S 10 17 30.63 1037 10 16.0934 0 0
9:15 am 09:15 Sunny 37 3 30 -1 75 75 S 9 15 30.63 1037 10 16.0934 0 0
9:35 am 09:35 Sunny 39 4 30 -1 70 70 S 13 20 30.62 1037 10 16.0934 0 0
9:55 am 09:55 Sunny 41 5 30 -1 66 66 SSW 14 22 30.6 1036 10 16.0934 0 0
10:15 am 10:15 Sunny 43 6 30 -1 61 61 SSW 15 24 30.6 1036 10 16.0934 0 0
10:35 am 10:35 Sunny 45 7 30 -1 57 57 S 15 24 30.6 1036 10 16.0934 0 0
10:55 am 10:55 Sunny 45 7 30 -1 57 57 SSW 16 26 30.59 1036 10 16.0934 0 0
11:15 am 11:15 Sunny 46 8 30 -1 53 53 SSW 15 24 30.58 1036 10 16.0934 0 0
11:35 am 11:35 Sunny 46 8 30 -1 53 53 S 21 33 30.56 1035 10 16.0934 0 0
11:55 am 11:55 Sunny 46 8 30 -1 53 53 S 17 28 30.55 1035 10 16.0934 0 0
12:15 pm 12:15 Sunny 48 9 30 -1 50 50 S 15 24 30.54 1034 10 16.0934 0 0
12:35 pm 12:35 Sunny 50 10 30 -1 47 47 S 15 24 30.53 1034 10 16.0934 0 0
12:55 pm 12:55 Sunny 50 10 30 -1 47 47 SSW 15 24 30.52 1033 10 16.0934 0 0
1:15 pm 13:15 Sunny 52 11 30 -1 44 44 S 15 24 30.5 1033 10 16.0934 0 0
1:35 pm 13:35 Sunny 52 11 30 -1 44 44 SSW 17 28 30.49 1033 10 16.0934 0 0
1:55 pm 13:55 Sunny 52 11 30 -1 44 44 S 16 26 30.48 1032 10 16.0934 0 0
2:15 pm 14:15 Sunny 52 11 30 -1 44 44 S 16 26 30.48 1032 10 16.0934 0 0
2:35 pm 14:35 Sunny 52 11 30 -1 44 44 S 12 19 30.47 1032 10 16.0934 0 0
2:55 pm 14:55 Sunny 54 12 30 -1 41 41 S 13 20 30.47 1032 10 16.0934 0 0
3:15 pm 15:15 Sunny 54 12 30 -1 41 41 S 15 24 30.46 1032 10 16.0934 0 0
3:35 pm 15:35 Sunny 54 12 30 -1 41 41 SSW 15 24 30.46 1032 10 16.0934 0 0
3:55 pm 15:55 Sunny 52 11 30 -1 44 44 S 13 20 30.46 1032 10 16.0934 0 0
4:15 pm 16:15 Sunny 52 11 30 -1 44 44 SSW 12 19 30.46 1032 10 16.0934 0 0
4:35 pm 16:35 Sunny 52 11 30 -1 44 44 SSW 13 20 30.46 1032 10 16.0934 0 0
4:55 pm 16:55 Clear 50 10 30 -1 47 47 SSW 12 19 30.46 1031 10 16.0934 0 0
5:15 pm 17:15 Clear 50 10 30 -1 47 47 S 10 17 30.46 1031 10 16.0934 0 0
5:35 pm 17:35 Clear 48 9 30 -1 50 50 S 9 15 30.46 1031 10 16.0934 0 0
5:55 pm 17:55 Clear 48 9 30 -1 50 50 S 9 15 30.46 1031 10 16.0934 0 0
6:15 pm 18:15 Clear 46 8 32 0 57 57 S 9 15 30.46 1031 10 16.0934 0 0
6:35 pm 18:35 Clear 46 8 32 0 57 57 S 9 15 30.47 1032 10 16.0934 0 0
6:55 pm 18:55 Clear 46 8 32 0 57 57 S 9 15 30.46 1031 10 16.0934 0 0
7:15 pm 19:15 Clear 46 8 32 0 57 57 S 12 19 30.46 1031 10 16.0934 0 0
7:35 pm 19:35 Clear 45 7 32 0 61 61 S 10 17 30.45 1031 10 16.0934 0 0
7:55 pm 19:55 Clear 45 7 32 0 61 61 S 9 15 30.44 1031 10 16.0934 0 0
8:15 pm 20:15 Clear 45 7 32 0 61 61 SSW 10 17 30.44 1031 10 16.0934 0 0
8:35 pm 20:35 Clear 45 7 32 0 61 61 SSW 10 17 30.43 1031 10 16.0934 0 0
8:55 pm 20:55 Clear 45 7 32 0 61 61 SSW 9 15 30.43 1031 10 16.0934 0 0
9:15 pm 21:15 Clear 45 7 32 0 61 61 S 10 17 30.42 1030 10 16.0934 0 0
9:35 pm 21:35 Clear 45 7 32 0 61 61 S 9 15 30.42 1030 10 16.0934 0 0
9:55 pm 21:55 Clear 45 7 32 0 61 61 SSW 9 15 30.42 1030 10 16.0934 0 0
10:15 pm 22:15 Clear 45 7 32 0 61 61 S 8 13 30.42 1030 10 16.0934 0 0
10:35 pm 22:35 Clear 45 7 32 0 61 61 S 8 13 30.41 1030 10 16.0934 0 0
10:55 pm 22:55 Clear 45 7 32 0 61 61 S 10 17 30.41 1030 10 16.0934 0 0
11:15 pm 23:15 Clear 45 7 32 0 61 61 S 9 15 30.4 1029 10 16.0934 0 0
11:35 pm 23:35 Clear 45 7 32 0 61 61 SSW 8 13 30.41 1030 10 16.0934 0 0
11:55 pm 23:55 Clear 45 7 32 0 61 61 SSW 8 13 30.41 1030 10 16.0934 0 0

Powered by AerisWeather